User: anonymous   Login
Location: Boissi�res
(45.2500°N, 2.3667°E)
Time: 06:18:59
(UTC+00:00)
Language:

Cosmos 2360 Rocket - Orbit

View from above orbital plane
View from above orbital plane
View from above satellite
View from above satellite

Ground track
Ground track

The orbit data is extracted from the following two-line orbital elements,

1 25407U 98045B   21134.76428354 -.00000277  00000-0 -11654-3 0  9992
2 25407  71.0113 281.2970 0008197 204.7022 155.3710 14.15838534178240
Epoch (UTC): 14 May 2021 18:20:34
Eccentricity: 0.0008197
inclination: 71.0113°
perigee height: 833 km
apogee height: 845 km
right ascension of ascending node: 281.2970°
argument of perigee: 204.7022°
revolutions per day: 14.15838534
mean anomaly at epoch: 155.3710°
orbit number at epoch: 17824

The dashed part of the orbit path shows where the satellite is in the earth's shadow,  

DLR